Regional Weather Roundup
Issued by NWS

Home | Current Version | Previous Version | Graphics & Text | Print | Product List | Glossary On
Versions: 1 2 3 4 5 6 7 8 9 10 11 12 13 14 15 16 17 18 19 20 21 22 23 24 25 26 27 28 29 30 31 32 33 34 35 36 37 38 39 40 41 42 43 44 45 46 47 48 49 50
000
ASUS45 KSLC 040510
RWRUT
UTAH REGIONAL WEATHER ROUNDUP
NATIONAL WEATHER SERVICE SALT LAKE CITY UT
1100 PM MDT MON AUG 03 2015

UTZ001>011-023>025-040600-

NORTHERN UTAH

CITY           SKY/WX    TMP DP  RH WIND       PRES   REMARKS
BRIGHAM CITY   MOCLDY    63  59  87 N7        30.09F
HILL AFB       PTCLDY    61  59  94 E8        30.07F
LOGAN          CLEAR     61  57  87 CALM      30.10F
OGDEN          PTCLDY    62  58  86 NE7       30.06F
PROVO AIRPORT  PTCLDY    61  54  77 S6        30.12R
SALT LAKE CITY PTCLDY    65  57  75 S9        30.06S
VERNAL         PTCLDY    61  51  70 N3        30.12R
WENDOVER       PTCLDY    72  50  46 CALM      30.05R
HEBER CITY     CLEAR     54  50  87 CALM      30.18R
WEST JORDAN    CLEAR     63  57  82 S8        30.10S

$$

UTZ012>022-026-027-040600-

SOUTHERN/CENTRAL UTAH

CITY           SKY/WX    TMP DP  RH WIND       PRES   REMARKS
BLANDING       PTCLDY    68  46  46 N8        30.21S
BRYCE CANYON   CLEAR     59  48  67 NE12      30.30R
CEDAR CITY     CLEAR     68  47  46 CALM      30.13R
DELTA          PTCLDY    66  56  68 CALM      30.10S
HANKSVILLE     MOCLDY    70  54  56 W8        30.11R
MILFORD        CLEAR     69  50  50 N13       30.10R
MOAB/CYNLANDS  LGT RAIN  66  57  72 S17       30.12F
PRICE          MOCLDY    64  51  62 N6        30.18R
ST GEORGE      CLEAR     90  37  15 S8        29.89S
KANAB          CLEAR     79  39  24 W7        30.11R

$$

REGIONAL REPORTS     COLORADO/ARIZONA

CITY           SKY/WX    TMP DP  RH WIND       PRES   REMARKS
CRAIG, CO      MOCLDY    58  54  86 NW3       30.18R
GRAND JUNCTION MOCLDY    72  48  42 NW8       30.07R
RIFLE          PTCLDY    65  55  70 CALM      30.12R
MONTROSE       PTCLDY    65  50  58 SE7       30.18R
CORTEZ         CLEAR     62  45  53 CALM      30.17S
PAGE, AZ       CLEAR     86  39  19 SW5       29.99R
GRAND CANYON   CLEAR     60  41  49 SW6       30.24R
KINGMAN        CLEAR     83  30  14 S12       29.98R
FLAGSTAFF      CLEAR     63  43  48 CALM      30.29R

$$

REGIONAL REPORTS    NEVADA/IDAHO/WYOMING

CITY           SKY/WX    TMP DP  RH WIND       PRES   REMARKS
LAS VEGAS, NV  PTCLDY    96  19   6 SW8       29.78R
ELY            PTCLDY    64  43  46 NW8       30.16R
ELKO           PTCLDY    72  41  32 S3        30.05R
POCATELLO, ID  CLOUDY    66  58  75 E6        30.04S
BURLEY         MOCLDY    70  51  51 S14       29.99R
EVANSTON, WY   MOCLDY    52  49  89 SW13      30.22S
ROCK SPRINGS   CLOUDY    55  50  83 W20       30.16S
KEMMERER       CLOUDY    52  50  93 W10G18    30.21S

$$



USA.gov is the U.S. government's official web portal to all federal, state and local government web resources and services.